GW1075 Weather Reports


Display with metric or nautical units.
time (UTC)temp
F
wind
direction
speed
MPH
gust
MPH
rain 1hr
in
rain 24hr
in
rain mn
in
humidity
%
barometer
mb
20260502130508 55 296 0.0 4.0 0.00 0.00 0.00 84 1022.2
20260502123508 53 317 1.0 4.0 0.00 0.00 0.00 86 1021.6
20260502123015 53 339 1.0 4.0 0.00 0.00 0.00 86 1021.4
20260502122507 53 301 0.0 2.0 0.00 0.00 0.00 86 1021.3
20260502122011 53 307 0.0 2.0 0.00 0.00 0.00 86 1021.2
20260502121533 52 318 0.0 2.0 0.00 0.00 0.00 87 1021.1
20260502121007 52 294 1.0 3.0 0.00 0.00 0.00 87 1021.0
20260502120507 52 305 0.0 3.0 0.00 0.00 0.00 87 1021.0
20260502115509 52 304 0.0 2.0 0.00 0.00 0.00 87 1020.8
20260502115008 52 299 0.0 2.0 0.00 0.00 0.00 87 1020.8
20260502114518 52 271 0.0 2.0 0.00 0.00 0.00 87 1020.8
20260502114007 52 322 0.0 2.0 0.00 0.00 0.00 87 1020.7
20260502113508 52 299 0.0 2.0 0.00 0.00 0.00 87 1020.6
20260502113015 52 305 0.0 2.0 0.00 0.00 0.00 86 1020.5
20260502112508 52 300 0.0 2.0 0.00 0.00 0.00 87 1020.3
20260502112008 52 263 0.0 0.0 0.00 0.00 0.00 86 1020.3
20260502111520 52 263 0.0 2.0 0.00 0.00 0.00 86 1020.2
20260502111007 52 301 0.0 2.0 0.00 0.00 0.00 86 1020.2
20260502110509 52 285 0.0 0.0 0.00 0.00 0.00 85 1020.1
20260502110026 52 300 0.0 0.0 0.00 0.00 0.00 85 1020.0
20260502105510 52 299 0.0 1.0 0.00 0.00 0.00 84 1020.0
20260502105011 53 273 0.0 2.0 0.00 0.00 0.00 83 1020.2
20260502104520 53 257 0.0 2.0 0.00 0.00 0.00 84 1020.2
20260502104008 53 246 0.0 3.0 0.00 0.00 0.00 83 1020.2
20260502103507 53 281 0.0 3.0 0.00 0.00 0.00 83 1020.1
20260502103022 52 308 0.0 2.0 0.00 0.00 0.00 83 1020.1
20260502102507 52 309 0.0 1.0 0.00 0.00 0.00 82 1019.9
20260502102007 52 313 0.0 0.0 0.00 0.00 0.00 81 1020.0
20260502101517 53 311 0.0 0.0 0.00 0.00 0.00 81 1020.1
20260502101008 53 323 0.0 0.0 0.00 0.00 0.00 81 1019.9
20260502100509 52 302 0.0 2.0 0.00 0.00 0.00 82 1019.8
20260502091513 53 320 0.0 3.0 0.00 0.00 0.00 81 1019.7
20260502091006 53 317 1.0 3.0 0.00 0.00 0.00 81 1019.7
20260502090507 53 290 0.0 2.0 0.00 0.00 0.00 81 1019.6
20260502071509 51 34 0.0 0.0 0.00 0.00 0.00 86 1019.8
20260502071006 51 34 0.0 0.0 0.00 0.00 0.00 86 1019.8
20260502070508 52 34 0.0 0.0 0.00 0.00 0.00 86 1019.8
20260502070021 52 34 0.0 0.0 0.00 0.00 0.00 86 1019.8
20260502065510 52 34 0.0 0.0 0.00 0.00 0.00 86 1019.9
20260502065011 52 34 0.0 0.0 0.00 0.00 0.00 86 1019.9
20260502064521 52 34 0.0 0.0 0.00 0.00 0.00 86 1019.9
20260502064009 52 34 0.0 0.0 0.00 0.00 0.00 85 1020.0
20260502063504 52 34 0.0 0.0 0.00 0.00 0.00 85 1020.0
20260502063006 52 34 0.0 0.0 0.00 0.00 0.00 85 1019.9
20260502062504 52 34 0.0 0.0 0.00 0.00 0.00 85 1019.9
20260502062004 53 34 0.0 0.0 0.00 0.00 0.00 85 1019.9
20260502061507 53 34 0.0 0.0 0.00 0.00 0.00 85 1019.9
20260502061004 53 34 0.0 0.0 0.00 0.00 0.00 85 1019.9
20260502060507 53 34 0.0 0.0 0.00 0.00 0.00 85 1019.8
20260502060017 53 34 0.0 0.0 0.00 0.00 0.00 85 1019.8
20260502055507 53 34 0.0 0.0 0.00 0.00 0.00 84 1019.8
20260502055008 53 34 0.0 0.0 0.00 0.00 0.00 84 1019.8
20260502054525 53 34 0.0 0.0 0.00 0.00 0.00 84 1019.8
20260502054008 53 34 0.0 0.0 0.00 0.00 0.00 84 1019.9
20260502053508 53 34 0.0 0.0 0.00 0.00 0.00 84 1020.0
20260502053026 53 34 0.0 0.0 0.00 0.00 0.00 84 1020.0
20260502052510 53 34 0.0 0.0 0.00 0.00 0.00 83 1020.0
20260502052003 54 34 0.0 0.0 0.00 0.00 0.00 83 1020.0
20260502051504 54 34 0.0 0.0 0.00 0.00 0.00 83 1019.9
20260502051003 54 34 0.0 0.0 0.00 0.00 0.00 83 1019.9
20260502050508 54 34 0.0 0.0 0.00 0.00 0.00 83 1020.0
20260502050011 54 34 0.0 0.0 0.00 0.00 0.00 82 1019.9
20260502045507 54 34 0.0 0.0 0.00 0.00 0.00 82 1019.8
20260502045007 54 34 0.0 0.0 0.00 0.00 0.00 81 1019.9
20260502044515 55 34 0.0 0.0 0.00 0.00 0.00 81 1019.8
20260502044007 55 34 0.0 0.0 0.00 0.00 0.00 81 1019.8
20260502043508 55 34 0.0 0.0 0.00 0.00 0.00 80 1019.7
20260502043020 55 34 0.0 0.0 0.00 0.00 0.00 80 1019.7
20260502042508 56 34 0.0 0.0 0.00 0.00 0.00 79 1019.9
20260502042009 56 34 0.0 0.0 0.00 0.00 0.00 79 1020.0
20260502041524 56 74 0.0 0.0 0.00 0.00 0.00 79 1019.6
20260502041009 56 74 0.0 0.0 0.00 0.00 0.00 78 1019.5
20260502040504 57 74 0.0 0.0 0.00 0.00 0.00 78 1019.5
20260502040010 57 74 0.0 0.0 0.00 0.00 0.00 77 1019.5
20260502035503 57 74 0.0 0.0 0.00 0.00 0.00 77 1019.4
20260502035003 58 74 0.0 0.0 0.00 0.00 0.00 76 1019.5
20260502034511 58 74 0.0 0.0 0.00 0.00 0.00 76 1019.7
20260502034007 58 74 0.0 0.0 0.00 0.00 0.00 76 1019.7
20260502033509 58 74 0.0 0.0 0.00 0.00 0.00 76 1019.7
20260502033016 58 74 0.0 0.0 0.00 0.00 0.00 76 1019.6
20260502032507 58 74 0.0 0.0 0.00 0.00 0.00 75 1019.6
20260502032009 58 74 0.0 0.0 0.00 0.00 0.00 74 1019.5
20260502031523 59 74 0.0 0.0 0.00 0.00 0.00 72 1019.3
20260502031008 59 82 0.0 0.0 0.00 0.00 0.00 72 1019.3
20260502030510 59 82 0.0 0.0 0.00 0.00 0.00 72 1019.2
20260502030024 59 82 0.0 0.0 0.00 0.00 0.00 72 1019.2
20260502025510 59 82 0.0 0.0 0.00 0.00 0.00 73 1019.2
20260502025003 59 82 0.0 0.0 0.00 0.00 0.00 73 1019.2
20260502024512 59 82 0.0 0.0 0.00 0.00 0.00 72 1019.2
20260502024010 60 82 0.0 0.0 0.00 0.00 0.00 72 1019.2
20260502023506 60 82 0.0 0.0 0.00 0.00 0.00 72 1019.1
20260502023016 60 82 0.0 0.0 0.00 0.00 0.00 71 1019.1
20260502022508 60 71 0.0 1.0 0.00 0.00 0.00 71 1019.0
20260502022010 60 44 0.0 2.0 0.00 0.00 0.00 71 1019.1
20260502021520 60 44 0.0 2.0 0.00 0.00 0.00 71 1018.9
20260502021013 60 69 0.0 0.0 0.00 0.00 0.00 70 1018.8
20260502020512 60 64 0.0 1.0 0.00 0.00 0.00 70 1018.7
20260502020024 60 64 0.0 2.0 0.00 0.00 0.00 69 1018.6
20260502015512 60 58 0.0 1.0 0.00 0.00 0.00 69 1018.6
20260502015010 60 85 0.0 0.0 0.00 0.00 0.00 70 1018.5
20260502014529 60 71 0.0 1.0 0.00 0.00 0.00 70 1018.2
20260502014007 60 112 0.0 1.0 0.00 0.00 0.00 70 1018.2
20260502013507 60 103 0.0 0.0 0.00 0.00 0.00 69 1018.2
20260502013014 60 107 0.0 0.0 0.00 0.00 0.00 69 1018.1
20260502012507 60 137 0.0 2.0 0.00 0.00 0.00 70 1017.9
20260502012011 60 140 0.0 2.0 0.00 0.00 0.00 70 1017.7
20260502011518 60 123 0.0 2.0 0.00 0.00 0.00 69 1017.7
20260502011009 61 189 0.0 2.0 0.00 0.00 0.00 68 1017.6
20260502010508 61 209 0.0 2.0 0.00 0.00 0.00 69 1017.6
20260502010022 61 107 0.0 2.0 0.00 0.00 0.00 69 1017.6
20260502005509 61 134 0.0 2.0 0.00 0.00 0.00 69 1017.5
20260502005010 61 104 0.0 2.0 0.00 0.00 0.00 68 1017.4
20260502004541 61 118 0.0 0.0 0.00 0.00 0.00 67 1017.4
20260502004009 61 79 0.0 2.0 0.00 0.00 0.00 68 1017.3
20260502003508 61 74 0.0 2.0 0.00 0.00 0.00 67 1017.2
20260502003026 62 71 0.0 2.0 0.00 0.00 0.00 67 1017.2
20260502002507 62 76 0.0 2.0 0.00 0.00 0.00 67 1017.2
20260502002007 62 123 1.0 2.0 0.00 0.00 0.00 67 1017.3
20260502001516 62 147 0.0 2.0 0.00 0.00 0.00 66 1017.3
20260502001008 62 111 0.0 2.0 0.00 0.00 0.00 66 1017.3
20260502000510 62 215 0.0 2.0 0.00 0.00 0.00 65 1017.2
20260502000019 62 133 0.0 2.0 0.00 0.00 0.00 66 1017.1
20260501235510 62 100 0.0 2.0 0.00 0.00 0.00 66 1016.9
20260501235007 62 146 0.0 3.0 0.00 0.00 0.00 65 1016.7
20260501234529 63 120 0.0 3.0 0.00 0.00 0.00 65 1016.6
20260501234004 63 124 1.0 3.0 0.00 0.00 0.00 64 1016.6
20260501233505 63 111 0.0 2.0 0.00 0.00 0.00 64 1016.5
20260501233011 63 96 1.0 2.0 0.00 0.00 0.00 64 1016.5
20260501232504 63 121 0.0 2.0 0.00 0.00 0.00 63 1016.6
20260501232008 63 139 0.0 2.0 0.00 0.00 0.00 63 1016.6
20260501231517 63 63 1.0 4.0 0.00 0.00 0.00 62 1016.6
20260501231007 63 167 1.0 5.0 0.00 0.00 0.00 62 1016.4
20260501230508 63 90 1.0 5.0 0.00 0.00 0.00 62 1016.1
20260501230020 63 62 0.0 3.0 0.00 0.00 0.00 61 1016.0
20260501225508 63 134 1.0 3.0 0.00 0.00 0.00 61 1016.0
20260501225010 63 145 1.0 3.0 0.00 0.00 0.00 61 1016.1
20260501224524 63 67 1.0 3.0 0.00 0.00 0.00 60 1016.2
20260501224010 63 108 1.0 5.0 0.00 0.00 0.00 60 1016.2
20260501223508 63 67 1.0 5.0 0.00 0.00 0.00 60 1016.3
20260501223027 63 61 1.0 3.0 0.00 0.00 0.00 62 1016.2
20260501222505 63 65 0.0 3.0 0.00 0.00 0.00 61 1016.1
20260501222005 63 107 1.0 3.0 0.00 0.00 0.00 62 1016.3
20260501221510 63 35 1.0 3.0 0.00 0.00 0.00 61 1016.3
20260501221005 63 138 0.0 4.0 0.00 0.00 0.00 62 1016.2
20260501220507 63 121 2.0 4.0 0.00 0.00 0.00 61 1016.2
20260501220017 63 181 1.0 4.0 0.00 0.00 0.00 60 1016.2
20260501215508 63 135 1.0 5.0 0.00 0.00 0.00 59 1016.0
20260501215009 63 150 1.0 6.0 0.00 0.00 0.00 59 1016.1
20260501214523 63 116 1.0 6.0 0.00 0.00 0.00 59 1016.1
20260501214012 63 67 1.0 4.0 0.00 0.00 0.00 60 1016.2
20260501213511 63 51 0.0 3.0 0.00 0.00 0.00 58 1016.3
20260501213023 63 49 2.0 3.0 0.00 0.00 0.00 59 1016.3
20260501212510 63 205 1.0 3.0 0.00 0.00 0.00 59 1016.2
20260501212009 63 83 1.0 4.0 0.00 0.00 0.00 58 1016.3
20260501211529 63 65 1.0 8.0 0.00 0.00 0.00 57 1016.1
20260501211005 63 138 2.0 8.0 0.00 0.00 0.00 57 1016.2
20260501210505 63 128 1.0 4.0 0.00 0.00 0.00 58 1016.2
20260501210015 63 92 1.0 6.0 0.00 0.00 0.00 57 1016.3
20260501205507 63 348 2.0 6.0 0.00 0.00 0.00 56 1016.1
20260501205007 63 109 2.0 6.0 0.00 0.00 0.00 57 1016.6
20260501204520 63 50 1.0 6.0 0.00 0.00 0.00 57 1016.7
20260501204008 63 113 2.0 7.0 0.00 0.00 0.00 55 1016.8
20260501203508 63 360 1.0 7.0 0.00 0.00 0.00 55 1016.8
20260501203024 63 58 2.0 7.0 0.00 0.00 0.00 54 1016.8
20260501202509 63 55 3.0 7.0 0.00 0.00 0.00 53 1016.7
20260501202012 63 71 2.0 7.0 0.00 0.00 0.00 54 1016.9
20260501201524 63 93 2.0 8.0 0.00 0.00 0.00 54 1016.9
20260501201008 64 154 2.0 8.0 0.00 0.00 0.00 54 1017.3
20260501200510 64 173 3.0 10.0 0.00 0.00 0.00 53 1017.1
20260501200026 64 79 4.0 10.0 0.00 0.00 0.00 53 1017.1
20260501195505 64 123 3.0 7.0 0.00 0.00 0.00 52 1017.1
20260501195006 64 61 2.0 7.0 0.00 0.00 0.00 54 1016.7
20260501194516 64 125 2.0 7.0 0.00 0.00 0.00 55 1016.6
20260501194008 64 156 2.0 6.0 0.00 0.00 0.00 58 1016.3
20260501193509 64 71 1.0 5.0 0.00 0.00 0.00 57 1016.0
20260501193027 64 300 2.0 5.0 0.00 0.00 0.00 55 1016.3
20260501192508 64 94 2.0 4.0 0.00 0.00 0.00 56 1016.5
20260501192007 64 207 1.0 7.0 0.00 0.00 0.00 56 1016.5
20260501191526 64 281 2.0 7.0 0.00 0.00 0.00 54 1016.6
20260501191011 64 207 2.0 9.0 0.00 0.00 0.00 54 1016.3
20260501190510 64 69 3.0 9.0 0.00 0.00 0.00 53 1016.2
20260501190028 64 118 3.0 8.0 0.00 0.00 0.00 54 1016.5
20260501185511 64 63 2.0 8.0 0.00 0.00 0.00 52 1016.6
20260501185012 65 159 4.0 8.0 0.00 0.00 0.00 56 1016.4
20260501184514 64 123 2.0 7.0 0.00 0.00 0.00 54 1016.3
20260501184010 65 108 2.0 7.0 0.00 0.00 0.00 54 1016.4
20260501183511 66 345 2.0 8.0 0.00 0.00 0.00 55 1016.4
20260501183022 66 65 3.0 9.0 0.00 0.00 0.00 55 1016.6
20260501182507 66 126 2.0 9.0 0.00 0.00 0.00 56 1016.6
20260501182016 66 127 3.0 11.0 0.00 0.00 0.00 54 1016.8
20260501181523 67 120 3.0 11.0 0.00 0.00 0.00 56 1017.0
20260501181008 68 80 4.0 11.0 0.00 0.00 0.00 57 1017.1
20260501180508 67 58 3.0 10.0 0.00 0.00 0.00 55 1017.2
20260501180035 67 185 4.0 10.0 0.00 0.00 0.00 58 1017.2
20260501175509 65 231 2.0 7.0 0.00 0.00 0.00 59 1017.3
20260501175012 65 110 2.0 8.0 0.00 0.00 0.00 56 1017.3
20260501174527 65 187 1.0 9.0 0.00 0.00 0.00 57 1017.4
20260501174007 64 156 3.0 9.0 0.00 0.00 0.00 55 1017.5
20260501173509 64 92 3.0 8.0 0.00 0.00 0.00 56 1017.4
20260501173017 65 82 2.0 7.0 0.00 0.00 0.00 58 1017.3
20260501172508 65 120 3.0 7.0 0.00 0.00 0.00 57 1017.6
20260501172010 64 146 3.0 7.0 0.00 0.01 0.00 57 1017.6
20260501171521 64 64 2.0 7.0 0.00 0.01 0.00 58 1017.8
20260501171009 64 97 2.0 9.0 0.00 0.02 0.00 60 1017.8
20260501170511 63 61 4.0 9.0 0.00 0.02 0.00 60 1018.0
20260501170025 63 140 2.0 9.0 0.00 0.03 0.00 62 1017.9
20260501165513 63 165 4.0 9.0 0.00 0.03 0.00 60 1017.9
20260501165009 62 41 3.0 8.0 0.00 0.03 0.00 62 1017.8
20260501164541 61 46 3.0 8.0 0.00 0.03 0.00 64 1017.8
20260501164009 61 44 3.0 7.0 0.00 0.03 0.00 63 1017.9
20260501163510 61 194 2.0 8.0 0.00 0.03 0.00 63 1018.0
20260501163016 61 126 3.0 8.0 0.00 0.03 0.00 63 1017.8
20260501162507 61 224 2.0 8.0 0.00 0.03 0.00 65 1018.1
20260501162007 60 117 2.0 8.0 0.00 0.03 0.00 63 1018.0
20260501161522 60 62 2.0 5.0 0.00 0.03 0.00 63 1018.1
20260501161007 60 60 2.0 6.0 0.00 0.03 0.00 65 1018.0
20260501160508 60 163 1.0 6.0 0.00 0.03 0.00 65 1017.9
20260501160005 59 46 2.0 7.0 0.00 0.03 0.00 64 1017.9
20260501155506 59 24 2.0 7.0 0.00 0.03 0.00 64 1017.9
20260501155004 59 71 2.0 6.0 0.00 0.04 0.00 66 1018.0
20260501154509 58 108 1.0 6.0 0.00 0.04 0.00 66 1017.9
20260501154005 58 93 2.0 6.0 0.00 0.04 0.00 67 1017.9
20260501153506 58 60 1.0 8.0 0.00 0.04 0.00 67 1018.2
20260501153025 58 95 2.0 8.0 0.00 0.04 0.00 67 1018.4
20260501152505 58 123 0.0 6.0 0.00 0.04 0.00 69 1018.3
20260501152005 58 45 1.0 5.0 0.00 0.04 0.00 70 1017.9
20260501151520 58 55 2.0 6.0 0.00 0.04 0.00 70 1017.7
20260501151006 58 205 2.0 6.0 0.00 0.04 0.00 71 1017.6
20260501150513 58 70 1.0 6.0 0.00 0.04 0.00 72 1017.8
20260501150022 58 133 1.0 6.0 0.00 0.04 0.00 71 1017.6
20260501145507 57 109 1.0 3.0 0.00 0.04 0.00 71 1017.7
20260501145010 57 113 2.0 3.0 0.00 0.04 0.00 72 1017.6
20260501144508 57 73 1.0 2.0 0.00 0.04 0.00 72 1018.1
20260501144005 57 34 0.0 3.0 0.00 0.04 0.00 73 1018.2
20260501143507 57 42 0.0 6.0 0.00 0.04 0.00 73 1018.1
20260501143015 57 56 1.0 6.0 0.00 0.04 0.00 72 1018.0
20260501142506 57 86 1.0 7.0 0.00 0.04 0.00 73 1017.9